Location: Unspecified
(51.5147°N, 7.4673°E)
Time: 17:00:49
(UTC+01:00)

Altair - All Passes

Search period start: 10 February 2026 00:00
Search period end: 20 February 2026 00:00
Orbit: 1502 x 1682 km, 47.2° (Epoch: 10 February)

Date Brightness Start Highest point End Pass type
(mag) Time Alt. Az. Time Alt. Az. Time Alt. Az.
10 Feb - 05:22:40 10° SSE 05:28:06 17° SE 05:33:37 10° E visible
10 Feb - 07:22:08 10° SW 07:30:48 45° SSE 07:39:46 10° E daylight
10 Feb - 09:25:21 10° WSW 09:34:43 68° S 09:44:27 10° E daylight
10 Feb - 11:29:36 10° W 11:39:00 61° SSW 11:48:45 10° ESE daylight
10 Feb - 13:34:17 10° W 13:42:36 33° SW 13:51:09 10° SSE daylight
11 Feb - 04:58:13 10° SSE 05:03:04 15° SE 05:07:58 10° E visible
11 Feb - 06:57:07 10° SW 07:05:39 43° SSE 07:14:29 10° E visible
11 Feb - 09:00:11 10° WSW 09:09:30 68° S 09:19:11 10° E daylight
11 Feb - 11:04:23 10° W 11:13:47 63° SSW 11:23:32 10° ESE daylight
11 Feb - 13:09:00 10° W 13:17:28 35° SW 13:26:11 10° SSE daylight
11 Feb - 15:18:04 10° WSW 15:19:52 11° WSW 15:21:43 10° SW daylight
12 Feb - 04:33:54 10° SSE 04:38:02 14° SE 04:42:13 10° E visible
12 Feb - 06:32:08 10° SSW 06:40:31 40° SE 06:49:12 10° E visible
12 Feb - 08:35:01 10° WSW 08:44:17 66° S 08:53:55 10° E daylight
12 Feb - 10:39:11 10° W 10:48:34 64° SSW 10:58:20 10° ESE daylight
12 Feb - 12:43:44 10° W 12:52:19 37° SW 13:01:10 10° SSE daylight
12 Feb - 14:51:33 10° WSW 14:54:51 12° WSW 14:58:11 10° SW daylight
13 Feb - 04:09:48 10° SE 04:13:01 12° ESE 04:16:16 10° ESE visible
13 Feb - 06:07:09 10° SSW 06:15:24 38° SE 06:23:55 10° E visible
13 Feb - 08:09:52 10° WSW 08:19:05 65° SSE 08:28:39 10° E daylight
13 Feb - 10:13:59 10° W 10:23:22 66° SSW 10:33:06 10° ESE daylight
13 Feb - 12:18:29 10° W 12:27:10 39° SW 12:36:08 10° SSE daylight
13 Feb - 14:25:34 10° W 14:29:48 14° SW 14:34:04 10° SSW daylight
14 Feb - 03:46:14 10° SE 03:48:01 11° ESE 03:49:47 10° ESE visible
14 Feb - 05:42:11 10° SSW 05:50:17 36° SE 05:58:37 10° E visible
14 Feb - 07:44:43 10° WSW 07:53:53 64° SSE 08:03:25 10° E daylight
14 Feb - 09:48:47 10° W 09:58:09 67° S 10:07:52 10° ESE daylight
14 Feb - 11:53:16 10° W 12:02:01 41° SSW 12:11:04 10° SSE daylight
14 Feb - 13:59:48 10° W 14:04:44 15° SW 14:09:45 10° SSW daylight
15 Feb - 05:17:16 10° SSW 05:25:11 34° SE 05:33:19 10° E visible
15 Feb - 07:19:35 10° WSW 07:28:41 62° SSE 07:38:09 10° E daylight
15 Feb - 09:23:37 10° W 09:32:56 68° S 09:42:38 10° ESE daylight
15 Feb - 11:28:01 10° W 11:36:52 44° SSW 11:46:00 10° SE daylight
15 Feb - 13:34:11 10° W 13:39:40 17° SW 13:45:16 10° SSW daylight
16 Feb - 04:52:21 10° SSW 05:00:05 32° SE 05:07:59 10° E visible
16 Feb - 06:54:27 10° WSW 07:03:30 61° SSE 07:12:53 10° E visible
16 Feb - 08:58:25 10° W 09:07:43 68° S 09:17:24 10° ESE daylight
16 Feb - 11:02:48 10° W 11:11:42 46° SSW 11:20:54 10° SE daylight
16 Feb - 13:08:38 10° W 13:14:36 18° SW 13:20:42 10° SSW daylight
17 Feb - 04:27:28 10° SSW 04:34:59 29° SE 04:42:40 10° E visible
17 Feb - 06:29:19 10° WSW 06:38:19 59° SSE 06:47:38 10° E visible
17 Feb - 08:33:14 10° W 08:42:30 69° S 08:52:09 10° ESE daylight
17 Feb - 10:37:35 10° W 10:46:32 48° SSW 10:55:48 10° SE daylight
17 Feb - 12:43:09 10° W 12:49:31 20° SW 12:56:02 10° S daylight
18 Feb - 04:02:37 10° S 04:09:55 27° SE 04:17:20 10° E visible
18 Feb - 06:04:13 10° SW 06:13:09 57° SSE 06:22:23 10° E visible
18 Feb - 08:08:02 10° W 08:17:17 69° S 08:26:55 10° ESE daylight
18 Feb - 10:12:22 10° W 10:21:21 50° SSW 10:30:40 10° SE daylight
18 Feb - 12:17:44 10° W 12:24:27 22° SW 12:31:19 10° S daylight
19 Feb - 03:37:48 10° S 03:44:50 25° SE 03:51:58 10° E visible
19 Feb - 05:39:06 10° SW 05:47:59 55° SSE 05:57:08 10° E visible
19 Feb - 07:42:51 10° W 07:52:05 69° S 08:01:40 10° E daylight
19 Feb - 09:47:10 10° W 09:56:11 52° SSW 10:05:32 10° SE daylight
19 Feb - 11:52:21 10° W 11:59:21 23° SW 12:06:32 10° S daylight
